Regional Weather Roundup
Issued by NWS

Home | Current Version | Previous Version | Graphics & Text | Print | Product List | Glossary On
Versions: 1 2 3 4 5 6 7 8 9 10 11 12 13 14 15 16 17 18 19 20 21 22 23 24 25 26 27 28 29 30 31 32 33 34 35 36 37 38 39 40 41 42 43 44 45 46 47 48 49 50
000
ASUS43 KBIS 180320
RWRND

NORTH DAKOTA REGIONAL WEATHER ROUNDUP
NATIONAL WEATHER SERVICE BISMARCK ND
1000 PM CDT WED SEP 17 2014

NOTE: "FAIR" INDICATES FEW OR NO CLOUDS BELOW 12,000 FEET WITH NO
SIGNIFICANT WEATHER AND/OR OBSTRUCTIONS TO VISIBILITY.


NDZ001>003-009>011-017-180400-
NORTHWEST NORTH DAKOTA

CITY           SKY/WX    TMP DP  RH WIND       PRES   REMARKS
WILLISTON      CLEAR     63  44  50 SE5       29.91F
MINOT          CLEAR     53  46  77 E8        29.98S
MINOT AFB      CLEAR     52  49  89 SE14      29.98S
$$

NDZ018>021-031>035-040>046-180400-
SOUTHWEST NORTH DAKOTA

CITY           SKY/WX    TMP DP  RH WIND       PRES   REMARKS
BISMARCK       CLEAR     56  48  74 E5        29.98R
DICKINSON      CLEAR     56  47  71 SE8       29.94S
GARRISON         N/A     56  51  84 E8        29.97S
HETTINGER ARPT CLEAR     58  49  72 E12       29.97S
$$

NDZ004>008-012>016-024-026-027-054-180400-
NORTHEAST NORTH DAKOTA

CITY           SKY/WX    TMP DP  RH WIND       PRES   REMARKS
GRAND FORKS    CLEAR     50  43  77 E9        30.05R
GRND FRKS AFB  CLEAR     49  45  87 E8        30.06R
DEVILS LAKE    CLEAR     46  39  76 E7        30.03S
$$

NDZ022-023-025-028>030-036>039-047>053-180400-
SOUTHEAST NORTH DAKOTA

CITY           SKY/WX    TMP DP  RH WIND       PRES   REMARKS
FARGO          CLEAR     55  49  80 N6        30.01R
JAMESTOWN      CLEAR     52  49  89 E7        30.02R
$$




USA.gov is the U.S. government's official web portal to all federal, state and local government web resources and services.